Back to catalog

STARLINK-31990

AliveCommunicationsVLEO
NORAD 60024·PAYLOAD·🇺🇸 United States

Launched Jun 8, 2024 from Cape Canaveral Space Force Station

Loading…

Next Passes (next 24 hours)

TLE

FreshSource: CelesTrak SupGP

Epoch: Sep 14, 2026, 15:00 UTC

1 60024C 24111J   26257.62548611 -.00003499  00000+0 -10340-3 0  2570
2 60024  53.1564 276.9870 0001183  77.9269 341.8162 15.34380572    14

Track STARLINK-31990 in real time with AllMySat

Download on the App Store